UAL703 KSFO-KSAN

Flight info

Callsign UAL703
Flight time 1h 2m
Altitude 35000
Route WESLA5 YYUNG LAX COMIX2
Aircraft A320/M-SDE3FGHIRWY/LB1

Departure

Time 2026-04-25 04:13
Airport San Francisco International Airport (KSFO)

Arrival

Time 2026-04-25 05:15
Airport San Diego International Airport (KSAN)
Time Latitude Longitude Altitude Speed Heading
2026-04-25 03:49 37.61158 -122.38458 18 ft 0 kts 301°
2026-04-25 03:52 37.61158 -122.38457 17 ft 0 kts 301°
2026-04-25 04:00 37.61152 -122.38445 18 ft 4 kts 314°
2026-04-25 04:00 37.61131 -122.38432 21 ft 4 kts 11°
2026-04-25 04:01 37.61120 -122.38435 20 ft 0 kts 28°
2026-04-25 04:05 37.61146 -122.38407 18 ft 8 kts 57°
2026-04-25 04:06 37.61147 -122.38337 20 ft 4 kts 106°
2026-04-25 04:06 37.61146 -122.38328 20 ft 3 kts 89°
2026-04-25 04:06 37.61190 -122.38280 18 ft 11 kts 24°
2026-04-25 04:06 37.61275 -122.38226 16 ft 16 kts 27°
2026-04-25 04:07 37.61382 -122.38155 15 ft 16 kts 30°
2026-04-25 04:07 37.61392 -122.38046 16 ft 14 kts 122°
2026-04-25 04:07 37.61340 -122.37927 15 ft 17 kts 118°
2026-04-25 04:07 37.61281 -122.37788 18 ft 19 kts 118°
2026-04-25 04:08 37.61228 -122.37631 18 ft 21 kts 94°
2026-04-25 04:08 37.61296 -122.37474 23 ft 21 kts 34°
2026-04-25 04:08 37.61371 -122.37424 22 ft 8 kts 28°
2026-04-25 04:08 37.61428 -122.37386 23 ft 11 kts 28°
2026-04-25 04:09 37.61496 -122.37336 25 ft 12 kts 34°
2026-04-25 04:09 37.61550 -122.37252 23 ft 13 kts 69°
2026-04-25 04:09 37.61553 -122.37129 22 ft 15 kts 103°
2026-04-25 04:09 37.61503 -122.37005 23 ft 17 kts 118°
2026-04-25 04:10 37.61432 -122.36873 20 ft 20 kts 129°
2026-04-25 04:10 37.61342 -122.36718 20 ft 23 kts 120°
2026-04-25 04:10 37.61260 -122.36523 17 ft 27 kts 117°
2026-04-25 04:10 37.61169 -122.36310 18 ft 28 kts 118°
2026-04-25 04:11 37.61146 -122.36079 17 ft 6 kts 30°
2026-04-25 04:11 37.61167 -122.36065 18 ft 2 kts 28°
2026-04-25 04:11 37.61200 -122.36043 17 ft 10 kts 28°
2026-04-25 04:12 37.61265 -122.36068 15 ft 13 kts 296°
2026-04-25 04:12 37.61272 -122.36087 15 ft 5 kts 296°
2026-04-25 04:12 37.61426 -122.36455 16 ft 93 kts 298°
2026-04-25 04:12 37.61844 -122.37453 35 ft 159 kts 296°
2026-04-25 04:13 37.62395 -122.38765 651 ft 176 kts 297°
2026-04-25 04:13 37.62969 -122.40110 1746 ft 173 kts 297°
2026-04-25 04:13 37.63574 -122.41503 2544 ft 192 kts 297°
2026-04-25 04:13 37.64271 -122.43106 2944 ft 231 kts 297°
2026-04-25 04:14 37.65076 -122.44950 3009 ft 238 kts 298°
2026-04-25 04:14 37.65870 -122.46754 3033 ft 233 kts 298°
2026-04-25 04:14 37.66644 -122.48576 3614 ft 238 kts 292°
2026-04-25 04:14 37.66844 -122.50705 4185 ft 256 kts 256°
2026-04-25 04:15 37.65946 -122.52653 4933 ft 266 kts 220°
2026-04-25 04:15 37.64269 -122.53623 5726 ft 272 kts 185°
2026-04-25 04:15 37.62387 -122.53322 6570 ft 277 kts 161°
2026-04-25 04:15 37.60594 -122.52402 7404 ft 280 kts 155°
2026-04-25 04:16 37.58807 -122.51386 8255 ft 284 kts 155°
2026-04-25 04:16 37.56994 -122.50352 9111 ft 288 kts 155°
2026-04-25 04:16 37.55133 -122.49374 9907 ft 293 kts 164°
2026-04-25 04:16 37.53077 -122.49195 10447 ft 307 kts 184°
2026-04-25 04:17 37.50874 -122.49441 10688 ft 329 kts 185°
2026-04-25 04:17 37.48564 -122.49756 11239 ft 338 kts 186°
2026-04-25 04:17 37.46210 -122.50098 11919 ft 342 kts 186°
2026-04-25 04:17 37.43832 -122.50448 12623 ft 347 kts 186°
2026-04-25 04:18 37.41422 -122.50798 13319 ft 351 kts 186°
2026-04-25 04:18 37.38981 -122.51147 13997 ft 355 kts 186°
2026-04-25 04:18 37.36518 -122.51494 14625 ft 358 kts 186°
2026-04-25 04:18 37.34033 -122.51839 15257 ft 361 kts 186°
2026-04-25 04:19 37.31528 -122.52181 15894 ft 363 kts 186°
2026-04-25 04:19 37.29001 -122.52522 16524 ft 366 kts 186°
2026-04-25 04:19 37.26459 -122.52868 17156 ft 369 kts 187°
2026-04-25 04:19 37.23899 -122.53223 17795 ft 372 kts 187°
2026-04-25 04:20 37.21315 -122.53581 18415 ft 375 kts 187°
2026-04-25 04:20 37.18716 -122.53940 18981 ft 377 kts 188°
2026-04-25 04:20 37.16095 -122.54301 19571 ft 380 kts 188°
2026-04-25 04:20 37.13463 -122.54661 20170 ft 382 kts 188°
2026-04-25 04:21 37.10815 -122.55026 20752 ft 384 kts 189°
2026-04-25 04:21 37.08147 -122.55396 21322 ft 387 kts 189°
2026-04-25 04:21 37.05462 -122.55759 21874 ft 390 kts 188°
2026-04-25 04:21 37.02729 -122.55652 22419 ft 398 kts 173°
2026-04-25 04:22 37.00076 -122.54558 22949 ft 409 kts 155°
2026-04-25 04:22 36.97775 -122.52414 23461 ft 419 kts 136°
2026-04-25 04:22 36.95805 -122.49687 23887 ft 424 kts 134°
2026-04-25 04:22 36.93854 -122.46899 24305 ft 428 kts 134°
2026-04-25 04:23 36.91897 -122.44072 24706 ft 432 kts 134°
2026-04-25 04:23 36.89926 -122.41227 25097 ft 435 kts 134°
2026-04-25 04:23 36.87933 -122.38362 25490 ft 439 kts 135°
2026-04-25 04:23 36.85916 -122.35478 25880 ft 442 kts 135°
2026-04-25 04:24 36.83882 -122.32584 26255 ft 445 kts 135°
2026-04-25 04:24 36.81829 -122.29671 26633 ft 448 kts 135°
2026-04-25 04:24 36.79759 -122.26739 27005 ft 452 kts 135°
2026-04-25 04:24 36.77677 -122.23791 27376 ft 454 kts 136°
2026-04-25 04:25 36.75583 -122.20829 27733 ft 457 kts 136°
2026-04-25 04:25 36.73469 -122.17844 28036 ft 461 kts 136°
2026-04-25 04:25 36.71339 -122.14843 28385 ft 464 kts 136°
2026-04-25 04:25 36.69197 -122.11823 28790 ft 465 kts 136°
2026-04-25 04:26 36.67053 -122.08795 29199 ft 467 kts 136°
2026-04-25 04:26 36.64900 -122.05752 29611 ft 469 kts 136°
2026-04-25 04:26 36.62741 -122.02704 30022 ft 470 kts 136°
2026-04-25 04:26 36.60574 -121.99648 30388 ft 472 kts 136°
2026-04-25 04:27 36.58368 -121.96544 30759 ft 473 kts 136°
2026-04-25 04:27 36.56185 -121.93477 31124 ft 474 kts 136°
2026-04-25 04:27 36.54026 -121.90447 31490 ft 475 kts 136°
2026-04-25 04:27 36.51803 -121.87332 31871 ft 476 kts 136°
2026-04-25 04:28 36.49609 -121.84255 32250 ft 476 kts 136°
2026-04-25 04:28 36.47409 -121.81171 32641 ft 477 kts 136°
2026-04-25 04:28 36.45210 -121.78093 33035 ft 477 kts 136°
2026-04-25 04:28 36.43031 -121.75051 33423 ft 477 kts 136°
2026-04-25 04:29 36.40794 -121.71934 33824 ft 477 kts 137°
2026-04-25 04:29 36.38582 -121.68858 34130 ft 479 kts 137°
2026-04-25 04:29 36.36392 -121.65811 34404 ft 480 kts 137°
2026-04-25 04:29 36.34169 -121.62716 34690 ft 481 kts 137°
2026-04-25 04:30 36.31912 -121.59575 34939 ft 484 kts 137°
2026-04-25 04:30 36.27400 -121.53313 35007 ft 496 kts 137°
2026-04-25 04:31 36.22723 -121.46833 35000 ft 504 kts 137°
2026-04-25 04:31 36.18041 -121.40343 34993 ft 506 kts 137°
2026-04-25 04:32 36.13354 -121.33862 34990 ft 506 kts 137°
2026-04-25 04:32 36.08689 -121.27432 34984 ft 505 kts 137°
2026-04-25 04:33 36.03963 -121.20927 34987 ft 505 kts 137°
2026-04-25 04:33 35.99256 -121.14466 34980 ft 506 kts 137°
2026-04-25 04:34 35.94577 -121.08058 34979 ft 506 kts 137°
2026-04-25 04:34 35.89853 -121.01612 34975 ft 506 kts 137°
2026-04-25 04:35 35.85126 -120.95165 34990 ft 507 kts 137°
2026-04-25 04:35 35.81164 -120.89765 35001 ft 508 kts 137°
2026-04-25 04:36 35.76420 -120.83308 35007 ft 508 kts 137°
2026-04-25 04:36 35.71669 -120.76859 35020 ft 509 kts 137°
2026-04-25 04:37 35.66914 -120.70424 35024 ft 508 kts 137°
2026-04-25 04:37 35.62159 -120.63990 35005 ft 507 kts 137°
2026-04-25 04:38 35.57414 -120.57577 35004 ft 507 kts 137°
2026-04-25 04:38 35.52665 -120.51175 34998 ft 507 kts 138°
2026-04-25 04:39 35.47909 -120.44780 34988 ft 507 kts 138°
2026-04-25 04:39 35.43152 -120.38399 34981 ft 507 kts 138°
2026-04-25 04:40 35.38391 -120.32022 34980 ft 507 kts 138°
2026-04-25 04:40 35.33617 -120.25641 34974 ft 508 kts 138°
2026-04-25 04:41 35.28838 -120.19255 34965 ft 509 kts 138°
2026-04-25 04:41 35.24046 -120.12874 34963 ft 510 kts 139°
2026-04-25 04:42 35.19239 -120.06498 34964 ft 510 kts 139°
2026-04-25 04:42 35.14430 -120.00120 34952 ft 510 kts 139°
2026-04-25 04:43 35.09622 -119.93748 34954 ft 510 kts 139°
2026-04-25 04:43 35.04805 -119.87372 34941 ft 511 kts 139°
2026-04-25 04:44 34.99978 -119.81003 34934 ft 511 kts 139°
2026-04-25 04:44 34.95144 -119.74640 34918 ft 512 kts 139°
2026-04-25 04:45 34.90300 -119.68268 34922 ft 513 kts 139°
2026-04-25 04:45 34.85441 -119.61892 34916 ft 513 kts 139°
2026-04-25 04:46 34.80577 -119.55531 34914 ft 514 kts 139°
2026-04-25 04:46 34.75704 -119.49165 34905 ft 514 kts 139°
2026-04-25 04:47 34.70827 -119.42803 34909 ft 515 kts 139°
2026-04-25 04:47 34.65940 -119.36439 34917 ft 515 kts 139°
2026-04-25 04:48 34.61006 -119.30026 34928 ft 516 kts 139°
2026-04-25 04:48 34.56110 -119.23649 34935 ft 517 kts 139°
2026-04-25 04:49 34.51200 -119.17280 34951 ft 517 kts 140°
2026-04-25 04:49 34.46296 -119.10961 34960 ft 517 kts 140°
2026-04-25 04:50 34.41363 -119.04616 34970 ft 518 kts 140°
2026-04-25 04:50 34.36428 -118.98259 34970 ft 518 kts 140°
2026-04-25 04:51 34.31486 -118.91898 34966 ft 519 kts 140°
2026-04-25 04:51 34.26541 -118.85540 34964 ft 520 kts 140°
2026-04-25 04:52 34.21579 -118.79180 34955 ft 520 kts 140°
2026-04-25 04:52 34.16600 -118.72815 34953 ft 521 kts 140°
2026-04-25 04:53 34.11642 -118.66495 34280 ft 515 kts 140°
2026-04-25 04:53 34.09194 -118.63371 34003 ft 512 kts 140°
2026-04-25 04:53 34.06735 -118.60239 33752 ft 515 kts 140°
2026-04-25 04:53 34.04269 -118.57101 33485 ft 516 kts 139°
2026-04-25 04:54 34.01798 -118.53958 33213 ft 516 kts 139°
2026-04-25 04:54 33.99331 -118.50825 32946 ft 516 kts 139°
2026-04-25 04:54 33.96858 -118.47692 32682 ft 516 kts 139°
2026-04-25 04:54 33.94382 -118.44560 32293 ft 516 kts 139°
2026-04-25 04:55 33.91911 -118.41428 31746 ft 516 kts 139°
2026-04-25 04:55 33.89461 -118.38285 31232 ft 516 kts 138°
2026-04-25 04:55 33.87022 -118.35122 30722 ft 515 kts 137°
2026-04-25 04:55 33.84590 -118.31948 30214 ft 515 kts 137°
2026-04-25 04:56 33.82166 -118.28784 29661 ft 515 kts 137°
2026-04-25 04:56 33.79729 -118.25617 29191 ft 515 kts 137°
2026-04-25 04:56 33.77293 -118.22466 28699 ft 516 kts 137°
2026-04-25 04:56 33.74852 -118.19296 28219 ft 517 kts 136°
2026-04-25 04:57 33.72424 -118.16114 27732 ft 518 kts 136°
2026-04-25 04:57 33.69994 -118.12912 27204 ft 518 kts 136°
2026-04-25 04:57 33.67565 -118.09710 26709 ft 519 kts 136°
2026-04-25 04:57 33.65134 -118.06510 26205 ft 518 kts 136°
2026-04-25 04:58 33.62712 -118.03327 25727 ft 515 kts 136°
2026-04-25 04:58 33.60304 -118.00172 25206 ft 511 kts 136°
2026-04-25 04:58 33.57908 -117.97040 24679 ft 507 kts 136°
2026-04-25 04:58 33.55528 -117.93934 24163 ft 506 kts 136°
2026-04-25 04:59 33.53048 -117.90806 23610 ft 513 kts 138°
2026-04-25 04:59 33.50517 -117.87793 22990 ft 511 kts 139°
2026-04-25 04:59 33.47953 -117.84861 22443 ft 508 kts 140°
2026-04-25 04:59 33.45382 -117.81979 21885 ft 504 kts 140°
2026-04-25 05:00 33.42824 -117.79136 21328 ft 500 kts 141°
2026-04-25 05:00 33.40256 -117.76364 20772 ft 495 kts 142°
2026-04-25 05:00 33.37687 -117.73647 20218 ft 491 kts 142°
2026-04-25 05:00 33.35134 -117.70966 19675 ft 486 kts 142°
2026-04-25 05:01 33.32607 -117.68304 19134 ft 482 kts 142°
2026-04-25 05:01 33.30104 -117.65664 18603 ft 478 kts 142°
2026-04-25 05:01 33.27630 -117.63051 18048 ft 470 kts 142°
2026-04-25 05:01 33.25174 -117.60445 17517 ft 472 kts 141°
2026-04-25 05:02 33.22724 -117.57839 16950 ft 470 kts 141°
2026-04-25 05:02 33.20290 -117.55261 16444 ft 466 kts 141°
2026-04-25 05:02 33.17868 -117.52706 16018 ft 463 kts 141°
2026-04-25 05:02 33.15457 -117.50171 15656 ft 461 kts 141°
2026-04-25 05:03 33.12999 -117.47739 15323 ft 456 kts 146°
2026-04-25 05:03 33.10454 -117.45523 14868 ft 450 kts 147°
2026-04-25 05:03 33.07910 -117.43391 14170 ft 444 kts 148°
2026-04-25 05:03 33.05376 -117.41315 13227 ft 439 kts 148°
2026-04-25 05:04 33.02871 -117.39272 12451 ft 434 kts 148°
2026-04-25 05:04 33.00403 -117.37242 11732 ft 428 kts 147°
2026-04-25 05:04 32.97977 -117.35226 11058 ft 422 kts 147°
2026-04-25 05:04 32.95600 -117.33234 10665 ft 409 kts 147°
2026-04-25 05:05 32.93339 -117.31331 10550 ft 388 kts 147°
2026-04-25 05:05 32.91192 -117.29521 10434 ft 367 kts 147°
2026-04-25 05:05 32.89197 -117.27842 10307 ft 337 kts 147°
2026-04-25 05:05 32.87353 -117.26299 10188 ft 312 kts 148°
2026-04-25 05:06 32.85636 -117.24869 10053 ft 292 kts 148°
2026-04-25 05:06 32.84000 -117.23513 9646 ft 283 kts 148°
2026-04-25 05:06 32.82426 -117.22135 9121 ft 281 kts 139°
2026-04-25 05:06 32.81203 -117.20337 8603 ft 280 kts 120°
2026-04-25 05:07 32.80498 -117.18195 8079 ft 279 kts 105°
2026-04-25 05:07 32.80006 -117.15975 7561 ft 276 kts 105°
2026-04-25 05:07 32.79526 -117.13803 7220 ft 267 kts 105°
2026-04-25 05:07 32.79055 -117.11687 6774 ft 263 kts 105°
2026-04-25 05:08 32.78587 -117.09594 6324 ft 260 kts 105°
2026-04-25 05:08 32.78135 -117.07567 6075 ft 247 kts 105°
2026-04-25 05:08 32.77708 -117.05666 5945 ft 229 kts 105°
2026-04-25 05:08 32.77290 -117.03917 5752 ft 213 kts 106°
2026-04-25 05:09 32.76878 -117.02243 5577 ft 216 kts 107°
2026-04-25 05:09 32.76451 -117.00513 5390 ft 219 kts 107°
2026-04-25 05:09 32.76023 -116.98768 5223 ft 220 kts 107°
2026-04-25 05:09 32.75378 -116.97144 4983 ft 217 kts 128°
2026-04-25 05:10 32.74258 -116.95986 4737 ft 213 kts 152°
2026-04-25 05:10 32.72865 -116.95457 4473 ft 210 kts 175°
2026-04-25 05:10 32.71430 -116.95619 4218 ft 207 kts 198°
2026-04-25 05:10 32.70166 -116.96411 3972 ft 206 kts 220°
2026-04-25 05:11 32.69264 -116.97710 3736 ft 205 kts 243°
2026-04-25 05:11 32.68851 -116.99315 3484 ft 204 kts 264°
2026-04-25 05:11 32.68978 -117.00975 3202 ft 201 kts 285°
2026-04-25 05:12 32.69753 -117.04131 2692 ft 198 kts 286°
2026-04-25 05:12 32.70138 -117.05705 2437 ft 198 kts 286°
2026-04-25 05:12 32.70509 -117.07225 2175 ft 185 kts 286°
2026-04-25 05:12 32.70855 -117.08638 1963 ft 171 kts 286°
2026-04-25 05:13 32.71181 -117.09975 1690 ft 163 kts 286°
2026-04-25 05:13 32.71482 -117.11221 1435 ft 153 kts 286°
2026-04-25 05:13 32.71679 -117.12038 1272 ft 151 kts 286°
2026-04-25 05:13 32.71966 -117.13224 1033 ft 148 kts 285°
2026-04-25 05:14 32.72251 -117.14397 797 ft 148 kts 285°
2026-04-25 05:14 32.72535 -117.15568 570 ft 148 kts 284°
2026-04-25 05:14 32.72819 -117.16738 306 ft 148 kts 284°
2026-04-25 05:15 32.73346 -117.18933 22 ft 107 kts 288°
2026-04-25 05:15 32.73503 -117.19565 24 ft 43 kts 288°
2026-04-25 05:15 32.73518 -117.19791 31 ft 19 kts 257°
2026-04-25 05:15 32.73490 -117.19896 26 ft 10 kts 257°
2026-04-25 05:16 32.73489 -117.19905 24 ft 0 kts 263°
2026-04-25 05:16 32.73489 -117.19906 24 ft 1 kts 263°
2026-04-25 05:16 32.73490 -117.19950 23 ft 8 kts 279°
2026-04-25 05:17 32.73510 -117.20031 24 ft 12 kts 287°
2026-04-25 05:17 32.73536 -117.20135 23 ft 15 kts 287°
2026-04-25 05:17 32.73516 -117.20256 23 ft 18 kts 235°
2026-04-25 05:17 32.73464 -117.20329 21 ft 9 kts 230°
2026-04-25 05:18 32.73449 -117.20351 21 ft 0 kts 230°